DW5244 Weather Reports


Display with metric or nautical units.
time (UTC)temp
F
wind
direction
speed
MPH
gust
MPH
rain 1hr
in
rain 24hr
in
rain mn
in
humidity
%
barometer
mb
20260504004508 80 360 3.0 8.0 0.00 0.00 0.00 32 1016.8
20260504003008 80 360 1.0 8.0 0.00 0.00 0.00 32 1016.9
20260504001506 80 257 2.0 4.0 0.00 0.00 0.00 31 1017.1
20260504000006 81 242 4.0 8.0 0.00 0.00 0.00 31 1017.2
20260503234505 81 261 2.0 6.0 0.00 0.00 0.00 30 1017.2
20260503233008 81 267 5.0 8.0 0.00 0.00 0.00 31 1017.2
20260503231502 81 255 5.0 10.0 0.00 0.00 0.00 31 1017.4
20260503230116 81 266 5.0 10.0 0.00 0.00 0.00 31 1017.6
20260503224606 80 318 3.0 12.0 0.00 0.00 0.00 31 1018.0
20260503223057 81 262 5.0 10.0 0.00 0.00 0.00 30 1018.1
20260503221602 82 271 6.0 14.0 0.00 0.00 0.00 29 1018.4
20260503220052 83 249 3.0 11.0 0.00 0.00 0.00 29 1018.6
20260503214555 82 268 3.0 9.0 0.00 0.00 0.00 30 1018.7
20260503213046 82 199 1.0 12.0 0.00 0.00 0.00 29 1019.0
20260503211547 81 174 3.0 10.0 0.00 0.00 0.00 32 1019.2
20260503210045 82 202 10.0 13.0 0.00 0.00 0.00 29 1019.5
20260503204540 81 262 4.0 13.0 0.00 0.00 0.00 30 1019.9
20260503203047 81 228 2.0 10.0 0.00 0.00 0.00 31 1020.3
20260503201536 80 194 9.0 15.0 0.00 0.00 0.00 31 1020.3
20260503200033 80 224 9.0 15.0 0.00 0.00 0.00 31 1020.7
20260503194539 80 200 8.0 14.0 0.00 0.00 0.00 33 1021.1
20260503193027 79 149 5.0 10.0 0.00 0.00 0.00 36 1021.3
20260503191524 78 182 2.0 8.0 0.00 0.00 0.00 33 1021.7
20260503190034 78 360 3.0 11.0 0.00 0.00 0.00 36 1022.2
20260503184523 78 206 4.0 10.0 0.00 0.00 0.00 35 1022.4
20260503183017 77 215 9.0 13.0 0.00 0.00 0.00 35 1023.0
20260503181511 76 126 6.0 11.0 0.00 0.00 0.00 36 1023.5
20260503180008 75 185 6.0 12.0 0.00 0.00 0.00 38 1023.6
20260503174506 74 186 7.0 12.0 0.00 0.00 0.00 39 1023.8
20260503173003 74 190 10.0 14.0 0.00 0.00 0.00 40 1024.0
20260503171605 73 165 4.0 14.0 0.00 0.00 0.00 40 1024.2
20260503100109 59 349 6.0 13.0 0.00 0.00 0.00 59 1024.4
20260503081556 60 360 9.0 14.0 0.00 0.00 0.00 56 1025.0
20260503071543 60 360 8.0 16.0 0.00 0.00 0.00 56 1025.5
20260503060105 60 59 9.0 19.0 0.00 0.00 0.00 52 1025.5
20260503054552 61 79 11.0 18.0 0.00 0.00 0.00 51 1025.5
20260503053037 61 50 11.0 19.0 0.00 0.00 0.00 50 1025.5
20260503051525 61 64 11.0 20.0 0.00 0.00 0.00 50 1025.3
20260503050023 61 60 11.0 17.0 0.00 0.00 0.00 49 1025.3
20260503044524 62 69 8.0 15.0 0.00 0.00 0.00 48 1025.3
20260503043025 62 74 6.0 14.0 0.00 0.00 0.00 48 1025.1
20260503041523 62 161 8.0 17.0 0.00 0.00 0.00 47 1025.0
20260503040032 63 165 11.0 24.0 0.00 0.00 0.00 46 1024.4
20260503034521 63 166 14.0 21.0 0.00 0.00 0.00 45 1024.1
20260503033027 63 149 13.0 20.0 0.00 0.00 0.00 45 1024.4
20260503031520 63 173 12.0 17.0 0.00 0.00 0.00 44 1024.3
20260503030024 64 156 10.0 18.0 0.00 0.00 0.00 44 1023.8
20260503024519 64 185 10.0 23.0 0.00 0.00 0.00 43 1023.2
20260503023018 65 148 12.0 21.0 0.00 0.00 0.00 42 1023.0
20260503021518 65 182 11.0 18.0 0.00 0.00 0.00 42 1023.0
20260503020017 66 174 11.0 21.0 0.00 0.00 0.00 41 1023.0
20260503014516 67 360 11.0 17.0 0.00 0.00 0.00 40 1023.1
20260503013016 67 188 13.0 19.0 0.00 0.00 0.00 40 1022.7
20260503011521 68 160 11.0 19.0 0.00 0.00 0.00 39 1022.5
20260503010020 69 145 9.0 19.0 0.00 0.00 0.00 37 1022.4